Weather in Nikolayevka

Russia / Belgorod Oblast     50°12′46″N   38°43′42″E
temp.,
°C
wind,
m/s
gust,
m/s
humid.,
%
clouds,
%
prec.,
mm/h
press.,
hPa
HPBL,
m
14 april, wed
wed1400:00+10sw1191100 0.0 102210
03:00+9nne229399 0.0 102117
06:00+9nne349477 0.0 101981
09:00+14ese574699 0.0 1018480
12:00+18se6837100 0.0 10171398
15:00+17ese71040100 0.0 1016937
18:00+16ese4744100 0.0 1015284
21:00+13ese4657100 0.0 1015128
15 april, thu
thu1500:00+11sse3566100 0.0 101481
03:00+9sw358744 0.0 1015105
06:00+8sw34927 0.0 101588
09:00+12sw456511 0.0 1016606
12:00+16ssw464410 0.0 10151594
15:00+16ssw564797 0.0 10141603
18:00+15s245244 0.0 1014125
21:00+12sse357980 0.6 1015115
16 april, fri
fri1600:00+10ssw3680100 0.1 1015176
03:00+9ssw248982 0.1 101595
06:00+7ssw23939 0.0 101644
09:00+12s347342 0.0 1016784
12:00+15s574911 0.1 10161848
15:00+17s563797 0.1 10162508
18:00+13w455577 0.0 1017537
21:00+10wnw3565100 0.0 1018162
17 april, sat
sat1700:00+9sw2380100 1.0 1018176
03:00+7sw1391100 14.8 1018224
06:00+7nw1291100 5.6 1018212
09:00+8s1288100 6.7 1018401
12:00+10wsw2268100 0.9 1018803
15:00+12sw4460100 2.6 10191194
18:00+10wsw3570100 1.7 1019365
21:00+8n3588100 1.9 1020112
18 april, sun
sun1800:00+7ne35885 0.0 1021120
03:00+6e229147 0.0 102115
06:00+6ene228852 0.0 102116
09:00+10ne2368100 0.0 1021409
12:00+13ene335392 0.2 10201443
15:00+14e234971 1.3 10201444
18:00+13ene236289 1.9 1020314
21:00+9ne4884100 2.8 1021204